Time,TemperatureF,DewpointF,PressureIn,WindDirection,WindDirectionDegrees,WindSpeedMPH,WindSpeedGustMPH,Humidity,HourlyPrecipIn,Conditions,Clouds,dailyrainin,SoftwareType,DateUTC
2013-11-26 00:02:00,35.0,33.0,30.09,NE,56,1.0,12.0,92,0.00,,,0.58,,2013-11-26 06:02:00,
2013-11-26 06:42:00,34.0,32.0,30.09,NW,320,3.0,7.0,93,0.00,,,0.58,,2013-11-26 12:42:00,
2013-11-26 06:52:00,35.0,33.0,30.09,NW,304,1.0,8.0,93,0.00,,,0.58,,2013-11-26 12:52:00,
2013-11-26 07:22:00,35.0,33.0,30.10,WNW,292,3.0,10.0,93,0.00,,,0.58,,2013-11-26 13:22:00,
2013-11-26 07:42:00,35.0,33.0,30.11,WNW,292,3.0,12.0,93,0.00,,,0.58,,2013-11-26 13:42:00,
2013-11-26 07:52:00,35.0,33.0,30.11,NW,308,5.0,12.0,93,0.00,,,0.58,,2013-11-26 13:52:00,
2013-11-26 08:22:00,35.0,33.0,30.12,WNW,301,5.0,13.0,92,0.00,,,0.56,,2013-11-26 14:22:00,
2013-11-26 08:52:00,36.0,34.0,30.13,NW,321,4.0,13.0,92,0.00,,,0.56,,2013-11-26 14:52:00,
2013-11-26 09:22:00,36.0,34.0,30.13,NW,316,2.0,13.0,91,0.00,,,0.56,,2013-11-26 15:22:00,
2013-11-26 09:54:00,37.0,34.0,30.04,NW,323,5.0,17.0,88,0.00,,,0.56,,2013-11-26 15:54:00,
2013-11-26 10:13:00,37.0,34.0,30.11,NW,318,6.0,14.0,87,0.00,,,0.56,,2013-11-26 16:13:00,
2013-11-26 10:23:00,37.0,33.0,30.15,NW,311,6.0,15.0,86,0.00,,,0.56,,2013-11-26 16:23:00,
2013-11-26 10:43:00,38.0,34.0,29.77,WNW,295,5.0,14.0,85,0.00,,,0.56,,2013-11-26 16:43:00,
2013-11-26 10:54:00,38.0,34.0,30.14,WNW,296,5.0,12.0,86,0.00,,,0.56,,2013-11-26 16:54:00,
2013-11-26 11:22:00,40.0,35.0,30.12,WNW,289,7.0,20.0,83,0.00,,,0.56,,2013-11-26 17:22:00,
2013-11-26 11:42:00,40.0,35.0,30.12,North,355,6.0,20.0,81,0.00,,,0.56,,2013-11-26 17:42:00,
2013-11-26 11:52:00,41.0,36.0,30.11,NW,310,6.0,17.0,81,0.00,,,0.56,,2013-11-26 17:52:00,
2013-11-26 12:22:00,42.0,36.0,30.11,WNW,298,6.0,14.0,78,0.00,,,0.56,,2013-11-26 18:22:00,
2013-11-26 12:42:00,42.0,34.0,30.10,NW,307,7.0,18.0,74,0.00,,,0.56,,2013-11-26 18:42:00,
2013-11-26 12:53:00,43.0,35.0,30.09,WNW,290,6.0,17.0,74,0.00,,,0.56,,2013-11-26 18:53:00,
2013-11-26 13:11:00,45.0,37.0,30.08,NW,322,2.0,16.0,73,0.00,,,0.56,,2013-11-26 19:11:00,
2013-11-26 13:22:00,45.0,35.0,30.08,WNW,290,6.0,13.0,69,0.00,,,0.10,,2013-11-26 19:22:00,
2013-11-26 13:52:00,47.0,36.0,29.97,NW,320,3.0,15.0,65,0.00,,,0.08,,2013-11-26 19:52:00,
2013-11-26 14:12:00,48.0,35.0,30.07,NNW,338,9.0,20.0,60,0.00,,,0.07,,2013-11-26 20:12:00,
2013-11-26 14:22:00,48.0,34.0,30.07,NW,312,7.0,22.0,59,0.00,,,0.06,,2013-11-26 20:22:00,
2013-11-26 14:42:00,49.0,35.0,30.06,WNW,292,5.0,18.0,59,0.00,,,0.04,,2013-11-26 20:42:00,
2013-11-26 14:53:00,49.0,34.0,30.07,NNE,21,6.0,16.0,57,0.00,,,0.04,,2013-11-26 20:53:00,
2013-11-26 15:11:00,49.0,34.0,30.06,NW,307,7.0,15.0,56,0.00,,,0.04,,2013-11-26 21:11:00,
2013-11-26 15:22:00,49.0,33.0,30.07,NW,323,9.0,22.0,53,0.00,,,0.04,,2013-11-26 21:22:00,
2013-11-26 15:43:00,50.0,34.0,30.08,NW,314,5.0,17.0,54,0.00,,,0.03,,2013-11-26 21:43:00,
2013-11-26 15:53:00,50.0,33.0,30.08,NW,324,8.0,18.0,51,0.00,,,0.02,,2013-11-26 21:53:00,
2013-11-26 16:23:00,50.0,33.0,30.07,NNW,342,8.0,14.0,51,0.01,,,0.02,,2013-11-26 22:23:00,
2013-11-26 16:43:00,49.0,32.0,30.10,WNW,284,4.0,16.0,51,0.01,,,0.01,,2013-11-26 22:43:00,
2013-11-26 16:53:00,49.0,32.0,30.11,NNW,336,5.0,15.0,51,0.01,,,0.01,,2013-11-26 22:53:00,
2013-11-26 17:22:00,48.0,32.0,30.12,WNW,295,3.0,13.0,53,0.00,,,0.01,,2013-11-26 23:22:00,
2013-11-26 17:43:00,48.0,32.0,30.13,WNW,295,3.0,14.0,53,0.00,,,0.01,,2013-11-26 23:43:00,
2013-11-26 17:53:00,47.0,30.0,30.09,WSW,249,7.0,17.0,52,0.00,,,0.01,,2013-11-26 23:53:00,
2013-11-26 18:11:00,47.0,30.0,30.03,WNW,299,6.0,14.0,51,0.00,,,0.01,,2013-11-27 00:11:00,
2013-11-26 18:21:00,47.0,31.0,30.09,WNW,290,3.0,12.0,53,0.00,,,0.01,,2013-11-27 00:21:00,
2013-11-26 18:52:00,46.0,31.0,30.16,WNW,286,2.0,9.0,56,0.00,,,0.01,,2013-11-27 00:52:00,
2013-11-26 19:11:00,45.0,31.0,30.17,West,279,3.0,9.0,57,0.00,,,0.01,,2013-11-27 01:11:00,
2013-11-26 19:21:00,45.0,31.0,30.17,NW,317,2.0,12.0,57,0.00,,,0.01,,2013-11-27 01:21:00,
2013-11-26 19:42:00,45.0,31.0,30.18,West,280,2.0,7.0,58,0.00,,,0.01,,2013-11-27 01:42:00,
2013-11-26 19:52:00,44.0,30.0,30.16,NW,309,3.0,9.0,58,0.00,,,0.01,,2013-11-27 01:52:00,
2013-11-26 20:12:00,44.0,31.0,30.19,WNW,295,3.0,12.0,59,0.00,,,0.01,,2013-11-27 02:12:00,
2013-11-26 20:21:00,44.0,31.0,30.19,North,350,3.0,9.0,59,0.00,,,0.01,,2013-11-27 02:21:00,
2013-11-26 20:42:00,43.0,30.0,30.20,NNW,340,5.0,13.0,59,0.00,,,0.01,,2013-11-27 02:42:00,
2013-11-26 20:52:00,43.0,30.0,30.02,NNW,333,5.0,10.0,59,0.00,,,0.01,,2013-11-27 02:52:00,
2013-11-26 21:11:00,43.0,29.0,30.19,NNW,343,5.0,14.0,58,0.00,,,0.01,,2013-11-27 03:11:00,
2013-11-26 21:21:00,43.0,29.0,30.21,NW,323,3.0,12.0,58,0.00,,,0.01,,2013-11-27 03:21:00,
2013-11-26 21:44:00,43.0,29.0,30.22,NNW,331,3.0,14.0,57,0.00,,,0.01,,2013-11-27 03:44:00,
2013-11-26 21:53:00,43.0,29.0,30.22,NW,309,2.0,14.0,58,0.00,,,0.01,,2013-11-27 03:53:00,
2013-11-26 22:13:00,42.0,29.0,30.14,NW,309,6.0,15.0,59,0.00,,,0.01,,2013-11-27 04:13:00,
2013-11-26 22:43:00,42.0,29.0,29.80,NW,322,6.0,13.0,60,0.00,,,0.01,,2013-11-27 04:43:00,
2013-11-26 22:53:00,41.0,28.0,30.25,NNW,337,2.0,10.0,60,0.00,,,0.01,,2013-11-27 04:53:00,
2013-11-26 23:22:00,40.0,28.0,30.27,ENE,57,6.0,14.0,61,0.00,,,0.01,,2013-11-27 05:22:00,
2013-11-26 23:42:00,40.0,28.0,30.27,NW,320,5.0,13.0,61,0.00,,,0.01,,2013-11-27 05:42:00,
2013-11-26 23:53:00,40.0,28.0,30.27,NW,320,5.0,13.0,61,0.00,,,0.01,,2013-11-27 05:53:00,